Location: Bougoudala
(13.2282°N, 4.9477°W)
Time: 21:06:53
(UTC+00:00)

BREEZE-M DEB (TANK) - Pass Details

Date: 29 January 2020
Orbit: 312 x 13816 km, 49.6° (Epoch: 22 February)

Event Time Altitude Azimuth Distance (km) Brightness Sun altitude
Rises 19:38:58 0° 317° (NW) 5,533 8.3 -19.5°
Reaches altitude 10° 19:44:08 10° 315° (NW) 3,175 7.1 -20.7°
Maximum altitude 19:50:03 55° 237° (WSW) 639 3.4 -22.1°
Enters shadow 19:51:02 36° 178° (S) 745 3.5 -22.3°
